Tracking 27122 objects as of 24-Mar-2023
HD Live streaming from Space Station
objects crossing your sky now

COSMOS 2251 DEB

Track COSMOS 2251 DEB now!
10-day predictions


NORAD ID: 37501
Int'l Code: 1993-036BME
Perigee: 550.7 km
Apogee: 602.6 km
Inclination: 74.0 °
Period: 96.1 minutes
Semi major axis: 6947 km
RCS: 0.003 m2 (small)
Launch date: June 16, 1993
Source: Commonwealth of Independent States (former USSR) (CIS)
Launch site: PLESETSK MISSILE AND SPACE COMPLEX (PKMTR)

Note: This is SATELLITE DEBRIS
Your satellite tracking list
Your tracking list is empty




NASA's NSSDC Master Catalog

Two Line Element Set (TLE):
1 37501U 93036BME 23080.27313362  .00050695  00000-0  40806-2 0  9992
2 37501  73.9978  51.8609 0037329  93.4181 267.1276 14.99150695453035
Source of the keplerian elements: AFSPC